Portes du Soleil, France 16 day weather forecast

Slopes altitude range 950 m - 2300m

Number of lifts: 197 Pistes: 650km

In some cases the lift and piste totals shown are for the ski domain (e.g. Three Valleys) rather than individual resort (e.g. Courchevel)

Overview

The 16 day weather forecast is fully updated 4 times every day.

    • Sun 17 FEB 2019
    • Sun 17
    • -6C 4C
    • Mon 18 FEB 2019
    • Mon 18
    • -6C 3C
    • Tue 19 FEB 2019
    • Tue 19
    • -7C 0C
    • Wed 20 FEB 2019
    • Wed 20
    • -7C 1C
    • Thu 21 FEB 2019
    • Thu 21
    • -6C 1C
    • Fri 22 FEB 2019
    • Fri 22
    • -6C 2C
    • Sat 23 FEB 2019
    • Sat 23
    • -4C 2C
    • Sun 24 FEB 2019
    • Sun 24
    • -4C 4C
    • Mon 25 FEB 2019
    • Mon 25
    • -3C 4C
    • Tue 26 FEB 2019
    • Tue 26
    • -2C 6C
    • Wed 27 FEB 2019
    • Wed 27
    • -1C 5C
    • Thu 28 FEB 2019
    • Thu 28
    • -2C 5C
    • Fri 01 MAR 2019
    • Fri 01
    • -1C 5C
    • Sat 02 MAR 2019
    • Sat 02
    • -2C 4C
    • Sun 03 MAR 2019
    • Sun 03
    • -1C 4C
    • Mon 04 MAR 2019
    • Mon 04
    • -2C 4C

Date:

Time Type 0°C level Temp Chill Snow Cloud Speed Gust Dir Press
12:00 2959m 4°C 4_4 0cm 0% 4mph 4mph 1025mB
15:00 2854m 4°C 4_3 0cm 38% 3mph 3mph 1024mB
18:00 1744m 4°C 4_7 0cm 33% 7mph 7mph 1026mB
21:00 1388m -5°C -5_7 0cm 0% 7mph 8mph 1027mB
0:00 1319m -5°C -5_7 0cm 0% 7mph 8mph 1026mB
3:00 1286m -5°C -5_7 0cm 1% 7mph 7mph 1026mB
6:00 1259m -6°C -6_7 0cm 1% 7mph 8mph 1025mB
9:00 2232m -6°C -6_6 0cm 0% 6mph 7mph 1024mB
12:00 2604m 3°C 3_3 0cm 0% 3mph 4mph 1022mB
15:00 2413m 3°C 3_2 0cm 44% 2mph 3mph 1021mB
18:00 1624m 3°C 3_5 0cm 68% 5mph 5mph 1023mB
21:00 1367m -5°C -5_6 0cm 90% 6mph 6mph 1024mB
0:00 1280m -6°C -6_5 0cm 89% 5mph 6mph 1025mB
3:00 1158m -6°C -6_4 0cm 93% 4mph 5mph 1024mB
6:00 1005m -7°C -7_3 0cm 93% 3mph 4mph 1025mB
9:00 1786m -7°C -7_2 0cm 93% 2mph 2mph 1024mB
12:00 2053m 0°C 0_3 0cm 92% 3mph 3mph 1023mB
15:00 1994m 0°C 0_3 0cm 74% 3mph 3mph 1021mB
18:00 1161m 0°C 0_3 0cm 44% 3mph 3mph 1024mB
21:00 1073m -7°C -7_4 0cm 0% 4mph 4mph 1025mB
0:00 1067m -7°C -7_5 0cm 7% 5mph 5mph 1025mB
3:00 1029m -7°C -7_4 0cm 77% 4mph 4mph 1025mB
6:00 976m -8°C -8_3 0cm 84% 3mph 4mph 1026mB
9:00 1823m -8°C -8_2 0cm 94% 2mph 2mph 1026mB
12:00 2176m 1°C 1_3 0cm 92% 3mph 2mph 1025mB
15:00 2064m 1°C 1_3 0cm 66% 3mph 4mph 1024mB
18:00 1264m 1°C 1_2 0cm 73% 2mph 2mph 1027mB
21:00 1240m -6°C -6_3 0cm 87% 3mph 3mph 1028mB
0:00 1239m -6°C -6_3 0cm 87% 3mph 3mph 1029mB
3:00 1221m -6°C -6_4 0cm 78% 4mph 4mph 1029mB
6:00 1149m -6°C -6_3 0cm 77% 3mph 3mph 1029mB
9:00 2002m -6°C -6_2 0cm 92% 2mph 2mph 1029mB
12:00 2272m 1°C 1_3 0cm 91% 3mph 3mph 1028mB
15:00 2206m 2°C 2_3 0cm 94% 3mph 4mph 1027mB
18:00 1614m 1°C 1_1 0cm 95% 1mph 2mph 1030mB
21:00 1417m -5°C -5_2 0cm 63% 2mph 2mph 1031mB
0:00 1358m -5°C -5_3 0cm 38% 3mph 3mph 1031mB
3:00 1320m -5°C -5_3 0cm 18% 3mph 4mph 1030mB
6:00 1236m -6°C -6_4 0cm 30% 4mph 5mph 1031mB
9:00 2107m -6°C -6_5 0cm 0% 5mph 6mph 1030mB
12:00 2389m 2°C 2_7 0cm 0% 7mph 8mph 1028mB
15:00 2339m 2°C 2_7 0cm 0% 7mph 9mph 1027mB
18:00 1774m 2°C 2_4 0cm 0% 4mph 5mph 1029mB
21:00 1527m -4°C -4_7 0cm 0% 7mph 7mph 1030mB
0:00 1722m -4°C -4_8 0cm 0% 8mph 8mph 1031mB
3:00 1722m -4°C -4_8 0cm 0% 8mph 8mph 1031mB
6:00 1626m -4°C -4_6 0cm 0% 6mph 7mph 1032mB
9:00 2283m -4°C -4_3 0cm 0% 3mph 4mph 1033mB
12:00 2408m 2°C 2_3 0cm 0% 3mph 3mph 1032mB
15:00 2297m 2°C 2_3 0cm 0% 3mph 3mph 1031mB
18:00 1900m 2°C 2_4 0cm 13% 4mph 5mph 1034mB
21:00 1911m -3°C -3_7 0cm 0% 7mph 8mph 1036mB
0:00 1826m -3°C -3_7 0cm 0% 7mph 8mph 1037mB
3:00 1669m -4°C -4_7 0cm 0% 7mph 7mph 1037mB
6:00 1608m -4°C -4_7 0cm 0% 7mph 7mph 1038mB
9:00 2658m -4°C -4_5 0cm 0% 5mph 5mph 1038mB
12:00 3068m 4°C 4_1 0cm 2% 1mph 1mph 1037mB
15:00 3018m 4°C 4_2 0cm 1% 2mph 3mph 1035mB
18:00 1980m 4°C 4_1 0cm 0% 1mph 2mph 1036mB
21:00 1980m -2°C -2_2 0cm 0% 2mph 2mph 1037mB
0:00 2002m -2°C -2_3 0cm 0% 3mph 3mph 1036mB
3:00 1916m -3°C -3_3 0cm 0% 3mph 3mph 1036mB
6:00 1830m -3°C -3_2 0cm 0% 2mph 2mph 1036mB
9:00 3624m -3°C -3_1 0cm 0% 1mph 2mph 1035mB
12:00 3624m 4°C 4_3 0cm 0% 3mph 3mph 1033mB
15:00 3601m 5°C 5_4 0cm 0% 4mph 4mph 1031mB
18:00 2041m 5°C 5_2 0cm 0% 2mph 2mph 1032mB
21:00 2036m -2°C -2_3 0cm 0% 3mph 3mph 1032mB
0:00 2066m -2°C -2_4 0cm 0% 4mph 4mph 1031mB
3:00 2048m -2°C -2_4 0cm 0% 4mph 5mph 1029mB
6:00 1994m -2°C -2_5 0cm 0% 5mph 5mph 1029mB
9:00 3233m -2°C -2_5 0cm 0% 5mph 5mph 1028mB
12:00 3240m 6°C 6_1 0cm 0% 1mph 2mph 1027mB
15:00 3131m 6°C 6_2 0cm 0% 2mph 3mph 1026mB
18:00 2125m 6°C 6_3 0cm 0% 3mph 3mph 1028mB
21:00 2095m -1°C -1_4 0cm 0% 4mph 4mph 1029mB
0:00 2112m -1°C -1_4 0cm 0% 4mph 5mph 1030mB
3:00 2059m -1°C -1_5 0cm 0% 5mph 6mph 1030mB
6:00 1962m -2°C -2_6 0cm 0% 6mph 7mph 1032mB
Afternoon 0mm 0 2380m 5°C 5_1 0cm 0% 1mph 2mph 1032mB
Morning 0mm 0 1586m -2°C -2_3 0cm 0% 3mph 4mph 1033mB
Afternoon 0mm 0 2635m 5°C 5_4 0cm 11% 4mph 5mph 1031mB
Morning 0mm 0 1798m -1°C -1_4 0cm 0% 4mph 5mph 1030mB
Afternoon 0mm 0 2317m 5°C 5_2 0cm 0% 2mph 3mph 1029mB
Morning 0mm 0 1551m -2°C -2_3 0cm 0% 3mph 3mph 1033mB
Afternoon 0mm 0 2124m 4°C 4_4 0cm 0% 4mph 5mph 1034mB
Morning 0mm 0 1722m -1°C -1_6 0cm 31% 6mph 6mph 1036mB
Afternoon 0.0104167mm 0 2291m 4°C 4_1 0cm 58% 1mph 2mph 1034mB
Morning 0mm 0 1621m -2°C -2_4 0cm 35% 4mph 5mph 1033mB
Afternoon 0mm 0 1684m 4°C 4_4 0cm 2% 4mph 5mph 1028mB
Morning 0mm 0 1315m -4°C -4_4 0cm 6% 4mph 6mph 1027mB

16 day outlook at a glance

Forecast issued: 2/17/2019 1:33:05 PM

Chat

Your comments and questions. In a resort? Let us know what it's like!


Characters left 250

For terms and conditions see Readers Comments on the Cookie and privacy policy page.